Location: Unnamed
(48.2382°N, 16.3826°E)
Time: 10:56:23
(UTC+02:00)

Falcon 9 debris - Pass Details

Date: 18 August 2020
Orbit: 426 x 434 km, 53.0° (Epoch: 23 September)

Event Time Altitude Azimuth Distance (km) Brightness Sun altitude
Rises 22:45:06 0° 295° (WNW) 2,413 ? -22.3°
Reaches altitude 10° 22:47:14 10° 298° (WNW) 1,544 ? -22.5°
Enters shadow 22:50:08 56° 326° (NW) 524 ? -22.7°
